owner,sensor,date,latitude,longitude,air_pressure(mBar),qcFlag 
TABS,ioos:station:wmo:42044:1,2009-12-01T00:00:00Z,26.1914,-97.0507,1014.77,11111222 
TABS,ioos:station:wmo:42044:1,2009-12-01T00:30:00Z,26.1914,-97.0507,1015.17,11111222 
TABS,ioos:station:wmo:42044:1,2009-12-01T01:00:00Z,26.1914,-97.0507,1015.24,11111222 
TABS,ioos:station:wmo:42044:1,2009-12-01T01:30:00Z,26.1914,-97.0507,1014.92,11111222 
TABS,ioos:station:wmo:42044:1,2009-12-01T02:00:00Z,26.1914,-97.0507,1014.91,11111222 
TABS,ioos:station:wmo:42044:1,2009-12-01T02:30:00Z,26.1914,-97.0507,1014.86,11111222 
TABS,ioos:station:wmo:42044:1,2009-12-01T03:00:00Z,26.1914,-97.0507,1014.74,11111222 
TABS,ioos:station:wmo:42044:1,2009-12-01T03:30:00Z,26.1914,-97.0507,1014.75,11111222 
TABS,ioos:station:wmo:42044:1,2009-12-01T04:00:00Z,26.1914,-97.0507,1014.7,11111222 
TABS,ioos:station:wmo:42044:1,2009-12-01T04:30:00Z,26.1914,-97.0507,1014.24,11111222 
TABS,ioos:station:wmo:42044:1,2009-12-01T05:00:00Z,26.1914,-97.0507,1013.86,11111222 
TABS,ioos:station:wmo:42044:1,2009-12-01T05:30:00Z,26.1914,-97.0507,1013.9,11111222 
TABS,ioos:station:wmo:42044:1,2009-12-01T06:00:00Z,26.1914,-97.0507,1013.2,11111222 
TABS,ioos:station:wmo:42044:1,2009-12-01T06:30:00Z,26.1914,-97.0507,1013.6,11111222 
TABS,ioos:station:wmo:42044:1,2009-12-01T07:00:00Z,26.1914,-97.0507,1013.42,11111222 
TABS,ioos:station:wmo:42044:1,2009-12-01T07:30:00Z,26.1914,-97.0507,1012.22,11111222 
TABS,ioos:station:wmo:42044:1,2009-12-01T08:00:00Z,26.1914,-97.0507,1011.72,11111222 
TABS,ioos:station:wmo:42044:1,2009-12-01T08:30:00Z,26.1914,-97.0507,1011.65,11111222 
TABS,ioos:station:wmo:42044:1,2009-12-01T09:00:00Z,26.1914,-97.0507,1010.54,11111222 
TABS,ioos:station:wmo:42044:1,2009-12-01T09:30:00Z,26.1914,-97.0507,1010.11,11111222 
TABS,ioos:station:wmo:42044:1,2009-12-01T10:00:00Z,26.1914,-97.0507,1009.46,11111222 
TABS,ioos:station:wmo:42044:1,2009-12-01T10:30:00Z,26.1914,-97.0507,1009.7,11111222 
TABS,ioos:station:wmo:42044:1,2009-12-01T11:00:00Z,26.1914,-97.0507,1009.71,11111222 
TABS,ioos:station:wmo:42044:1,2009-12-01T11:30:00Z,26.1914,-97.0507,1008.95,11111222 
TABS,ioos:station:wmo:42044:1,2009-12-01T12:00:00Z,26.1914,-97.0507,1009.04,11111222 
TABS,ioos:station:wmo:42044:1,2009-12-01T12:30:00Z,26.1914,-97.0507,1009.41,11111222 
TABS,ioos:station:wmo:42044:1,2009-12-01T13:00:00Z,26.1914,-97.0507,1009.45,11111222 
TABS,ioos:station:wmo:42044:1,2009-12-01T13:30:00Z,26.1914,-97.0507,1009.66,11111222 
TABS,ioos:station:wmo:42044:1,2009-12-01T14:00:00Z,26.1914,-97.0507,1009.73,11111222 
TABS,ioos:station:wmo:42044:1,2009-12-01T14:30:00Z,26.1914,-97.0507,1009.08,11111222 
TABS,ioos:station:wmo:42044:1,2009-12-01T15:00:00Z,26.1914,-97.0507,1008.95,11111222 
TABS,ioos:station:wmo:42044:1,2009-12-01T15:30:00Z,26.1914,-97.0507,1008.2,11111222 
TABS,ioos:station:wmo:42044:1,2009-12-01T16:00:00Z,26.1914,-97.0507,1008.14,11111222 
TABS,ioos:station:wmo:42044:1,2009-12-01T16:30:00Z,26.1914,-97.0507,1006.19,11111222 
TABS,ioos:station:wmo:42044:1,2009-12-01T17:00:00Z,26.1914,-97.0507,1006.63,11111222 
TABS,ioos:station:wmo:42044:1,2009-12-01T17:30:00Z,26.1914,-97.0507,1006.86,11111222 
TABS,ioos:station:wmo:42044:1,2009-12-01T18:00:00Z,26.1914,-97.0507,1006.35,11111222 
TABS,ioos:station:wmo:42044:1,2009-12-01T18:30:00Z,26.1914,-97.0507,1005.43,11111222 
TABS,ioos:station:wmo:42044:1,2009-12-01T19:00:00Z,26.1914,-97.0507,1004.74,11111222 
TABS,ioos:station:wmo:42044:1,2009-12-01T19:30:00Z,26.1914,-97.0507,1004.53,11111222 
TABS,ioos:station:wmo:42044:1,2009-12-01T20:00:00Z,26.1914,-97.0507,1004.66,11111222 
TABS,ioos:station:wmo:42044:1,2009-12-01T20:30:00Z,26.1914,-97.0507,1004.51,11111222 
TABS,ioos:station:wmo:42044:1,2009-12-01T21:00:00Z,26.1914,-97.0507,1004.44,11111222 
TABS,ioos:station:wmo:42044:1,2009-12-01T21:30:00Z,26.1914,-97.0507,1004.69,11111222 
TABS,ioos:station:wmo:42044:1,2009-12-01T22:00:00Z,26.1914,-97.0507,1004.41,11111222 
TABS,ioos:station:wmo:42044:1,2009-12-01T22:30:00Z,26.1914,-97.0507,1004.98,11111222 
TABS,ioos:station:wmo:42044:1,2009-12-01T23:00:00Z,26.1914,-97.0507,1004.99,11111222 
TABS,ioos:station:wmo:42044:1,2009-12-01T23:30:00Z,26.1914,-97.0507,1004.48,11111222 
TABS,ioos:station:wmo:42044:1,2009-12-02T00:00:00Z,26.1914,-97.0507,1005.47,11111222 
TABS,ioos:station:wmo:42044:1,2009-12-02T00:30:00Z,26.1914,-97.0507,1005.51,11111222 
TABS,ioos:station:wmo:42044:1,2009-12-02T01:00:00Z,26.1914,-97.0507,1005.78,11111222 
TABS,ioos:station:wmo:42044:1,2009-12-02T01:30:00Z,26.1914,-97.0507,1005.98,11111222 
TABS,ioos:station:wmo:42044:1,2009-12-02T02:00:00Z,26.1914,-97.0507,1005.9,11111222 
TABS,ioos:station:wmo:42044:1,2009-12-02T02:30:00Z,26.1914,-97.0507,1006.31,11111222 
TABS,ioos:station:wmo:42044:1,2009-12-02T03:00:00Z,26.1914,-97.0507,1006.91,11111222 
TABS,ioos:station:wmo:42044:1,2009-12-02T03:30:00Z,26.1914,-97.0507,1007.31,11111222 
TABS,ioos:station:wmo:42044:1,2009-12-02T04:00:00Z,26.1914,-97.0507,1007.19,11111222 
TABS,ioos:station:wmo:42044:1,2009-12-02T04:30:00Z,26.1914,-97.0507,1007.74,11111222 
TABS,ioos:station:wmo:42044:1,2009-12-02T05:00:00Z,26.1914,-97.0507,1007.58,11111222 
TABS,ioos:station:wmo:42044:1,2009-12-02T05:30:00Z,26.1914,-97.0507,1007.42,11111222 
TABS,ioos:station:wmo:42044:1,2009-12-02T06:00:00Z,26.1914,-97.0507,1007.22,11111222 
TABS,ioos:station:wmo:42044:1,2009-12-02T06:30:00Z,26.1914,-97.0507,1007.14,11111222 
TABS,ioos:station:wmo:42044:1,2009-12-02T07:00:00Z,26.1914,-97.0507,1006.98,11111222 
TABS,ioos:station:wmo:42044:1,2009-12-02T07:30:00Z,26.1914,-97.0507,1007.08,11111222 
TABS,ioos:station:wmo:42044:1,2009-12-02T08:00:00Z,26.1914,-97.0507,1007.4,11111222 
TABS,ioos:station:wmo:42044:1,2009-12-02T08:30:00Z,26.1914,-97.0507,1007.46,11111222 
TABS,ioos:station:wmo:42044:1,2009-12-02T09:00:00Z,26.1914,-97.0507,1007.83,11111222 
TABS,ioos:station:wmo:42044:1,2009-12-02T09:30:00Z,26.1914,-97.0507,1007.33,11111222 
TABS,ioos:station:wmo:42044:1,2009-12-02T10:00:00Z,26.1914,-97.0507,1007.36,11111222 
TABS,ioos:station:wmo:42044:1,2009-12-02T10:30:00Z,26.1914,-97.0507,1007.47,11111222 
TABS,ioos:station:wmo:42044:1,2009-12-02T11:00:00Z,26.1914,-97.0507,1007.55,11111222 
TABS,ioos:station:wmo:42044:1,2009-12-02T11:30:00Z,26.1914,-97.0507,1007.86,11111222 
TABS,ioos:station:wmo:42044:1,2009-12-02T12:00:00Z,26.1914,-97.0507,1007.86,11111222 
TABS,ioos:station:wmo:42044:1,2009-12-02T12:30:00Z,26.1914,-97.0507,1008.46,11111222 
TABS,ioos:station:wmo:42044:1,2009-12-02T13:00:00Z,26.1914,-97.0507,1009.05,11111222 
TABS,ioos:station:wmo:42044:1,2009-12-02T13:30:00Z,26.1914,-97.0507,1009.16,11111222 
TABS,ioos:station:wmo:42044:1,2009-12-02T14:00:00Z,26.1914,-97.0507,1009.79,11111222 
TABS,ioos:station:wmo:42044:1,2009-12-02T14:30:00Z,26.1914,-97.0507,1010.25,11111222 
TABS,ioos:station:wmo:42044:1,2009-12-02T15:00:00Z,26.1914,-97.0507,1010.45,11111222 
TABS,ioos:station:wmo:42044:1,2009-12-02T15:30:00Z,26.1914,-97.0507,1010.19,11111222 
TABS,ioos:station:wmo:42044:1,2009-12-02T16:00:00Z,26.1914,-97.0507,1010.78,11111222 
TABS,ioos:station:wmo:42044:1,2009-12-02T16:30:00Z,26.1914,-97.0507,1011.15,11111222 
TABS,ioos:station:wmo:42044:1,2009-12-02T17:00:00Z,26.1914,-97.0507,1011.33,11111222 
TABS,ioos:station:wmo:42044:1,2009-12-02T17:30:00Z,26.1914,-97.0507,1011.23,11111222 
TABS,ioos:station:wmo:42044:1,2009-12-02T18:00:00Z,26.1914,-97.0507,1010.49,11111222 
TABS,ioos:station:wmo:42044:1,2009-12-02T18:30:00Z,26.1914,-97.0507,1010.46,11111222 
TABS,ioos:station:wmo:42044:1,2009-12-02T19:00:00Z,26.1914,-97.0507,1010.05,11111222 
TABS,ioos:station:wmo:42044:1,2009-12-02T19:30:00Z,26.1914,-97.0507,1010.03,11111222 
TABS,ioos:station:wmo:42044:1,2009-12-02T20:00:00Z,26.1914,-97.0507,1010.19,11111222 
TABS,ioos:station:wmo:42044:1,2009-12-02T20:30:00Z,26.1914,-97.0507,1010.09,11111222 
TABS,ioos:station:wmo:42044:1,2009-12-02T21:00:00Z,26.1914,-97.0507,1010.63,11111222 
TABS,ioos:station:wmo:42044:1,2009-12-02T21:30:00Z,26.1914,-97.0507,1011.01,11111222 
TABS,ioos:station:wmo:42044:1,2009-12-02T22:00:00Z,26.1914,-97.0507,1011.12,11111222 
TABS,ioos:station:wmo:42044:1,2009-12-02T22:30:00Z,26.1914,-97.0507,1011.63,11111222 
TABS,ioos:station:wmo:42044:1,2009-12-02T23:00:00Z,26.1914,-97.0507,1012.09,11111222 
TABS,ioos:station:wmo:42044:1,2009-12-02T23:30:00Z,26.1914,-97.0507,1012.61,11111222 
TABS,ioos:station:wmo:42044:1,2009-12-03T00:00:00Z,26.1914,-97.0507,1012.53,11111222 
TABS,ioos:station:wmo:42044:1,2009-12-03T00:30:00Z,26.1914,-97.0507,1013.11,11111222 
TABS,ioos:station:wmo:42044:1,2009-12-03T01:00:00Z,26.1914,-97.0507,1013.82,11111222 
TABS,ioos:station:wmo:42044:1,2009-12-03T01:30:00Z,26.1914,-97.0507,1014.44,11111222 
TABS,ioos:station:wmo:42044:1,2009-12-03T02:00:00Z,26.1914,-97.0507,1014.7,11111222 
TABS,ioos:station:wmo:42044:1,2009-12-03T02:30:00Z,26.1914,-97.0507,1014.9,11111222 
TABS,ioos:station:wmo:42044:1,2009-12-03T03:00:00Z,26.1914,-97.0507,1015.21,11111222 
TABS,ioos:station:wmo:42044:1,2009-12-03T03:30:00Z,26.1914,-97.0507,1015.58,11111222 
TABS,ioos:station:wmo:42044:1,2009-12-03T04:00:00Z,26.1914,-97.0507,1015.59,11111222 
TABS,ioos:station:wmo:42044:1,2009-12-03T04:30:00Z,26.1914,-97.0507,1015.38,11111222 
TABS,ioos:station:wmo:42044:1,2009-12-03T05:00:00Z,26.1914,-97.0507,1015.64,11111222 
TABS,ioos:station:wmo:42044:1,2009-12-03T05:30:00Z,26.1914,-97.0507,1016.3,11111222 
TABS,ioos:station:wmo:42044:1,2009-12-03T06:00:00Z,26.1914,-97.0507,1016.59,11111222 
TABS,ioos:station:wmo:42044:1,2009-12-03T06:30:00Z,26.1914,-97.0507,1016.86,11111222 
TABS,ioos:station:wmo:42044:1,2009-12-03T07:00:00Z,26.1914,-97.0507,1017.02,11111222 
TABS,ioos:station:wmo:42044:1,2009-12-03T07:30:00Z,26.1914,-97.0507,1016.92,11111222 
TABS,ioos:station:wmo:42044:1,2009-12-03T08:00:00Z,26.1914,-97.0507,1017.3,11111222 
TABS,ioos:station:wmo:42044:1,2009-12-03T08:30:00Z,26.1914,-97.0507,1017.3,11111222 
TABS,ioos:station:wmo:42044:1,2009-12-03T09:00:00Z,26.1914,-97.0507,1017.47,11111222 
TABS,ioos:station:wmo:42044:1,2009-12-03T09:30:00Z,26.1914,-97.0507,1017.69,11111222 
TABS,ioos:station:wmo:42044:1,2009-12-03T10:00:00Z,26.1914,-97.0507,1017.64,11111222 
TABS,ioos:station:wmo:42044:1,2009-12-03T10:30:00Z,26.1914,-97.0507,1017.7,11111222 
TABS,ioos:station:wmo:42044:1,2009-12-03T11:00:00Z,26.1914,-97.0507,1017.86,11111222 
TABS,ioos:station:wmo:42044:1,2009-12-03T11:30:00Z,26.1914,-97.0507,1017.89,11111222 
TABS,ioos:station:wmo:42044:1,2009-12-03T12:00:00Z,26.1914,-97.0507,1018.43,11111222 
TABS,ioos:station:wmo:42044:1,2009-12-03T12:30:00Z,26.1914,-97.0507,1018.44,11111222 
TABS,ioos:station:wmo:42044:1,2009-12-03T13:00:00Z,26.1914,-97.0507,1018.46,11111222 
TABS,ioos:station:wmo:42044:1,2009-12-03T13:30:00Z,26.1914,-97.0507,1018.15,11111222 
TABS,ioos:station:wmo:42044:1,2009-12-03T14:00:00Z,26.1914,-97.0507,1018.46,11111222 
TABS,ioos:station:wmo:42044:1,2009-12-03T14:30:00Z,26.1914,-97.0507,1019.06,11111222 
TABS,ioos:station:wmo:42044:1,2009-12-03T15:00:00Z,26.1914,-97.0507,1019.87,11111222 
TABS,ioos:station:wmo:42044:1,2009-12-03T15:30:00Z,26.1914,-97.0507,1020.47,11111222 
TABS,ioos:station:wmo:42044:1,2009-12-03T16:00:00Z,26.1914,-97.0507,1020.24,11111222 
TABS,ioos:station:wmo:42044:1,2009-12-03T16:30:00Z,26.1914,-97.0507,1020.38,11111222 
TABS,ioos:station:wmo:42044:1,2009-12-03T17:00:00Z,26.1914,-97.0507,1019.89,11111222 
TABS,ioos:station:wmo:42044:1,2009-12-03T17:30:00Z,26.1914,-97.0507,1019.96,11111222 
TABS,ioos:station:wmo:42044:1,2009-12-03T18:00:00Z,26.1914,-97.0507,1019.25,11111222 
TABS,ioos:station:wmo:42044:1,2009-12-03T18:30:00Z,26.1914,-97.0507,1019.03,11111222 
TABS,ioos:station:wmo:42044:1,2009-12-03T19:00:00Z,26.1914,-97.0507,1018.39,11111222 
TABS,ioos:station:wmo:42044:1,2009-12-03T19:30:00Z,26.1914,-97.0507,1018.33,11111222 
TABS,ioos:station:wmo:42044:1,2009-12-03T20:00:00Z,26.1914,-97.0507,1017.91,11111222 
TABS,ioos:station:wmo:42044:1,2009-12-03T20:30:00Z,26.1914,-97.0507,1018.03,11111222 
TABS,ioos:station:wmo:42044:1,2009-12-03T21:00:00Z,26.1914,-97.0507,1018.15,11111222 
TABS,ioos:station:wmo:42044:1,2009-12-03T21:30:00Z,26.1914,-97.0507,1017.84,11111222 
TABS,ioos:station:wmo:42044:1,2009-12-03T22:00:00Z,26.1914,-97.0507,1018.27,11111222 
TABS,ioos:station:wmo:42044:1,2009-12-03T22:30:00Z,26.1914,-97.0507,1018.42,11111222 
TABS,ioos:station:wmo:42044:1,2009-12-03T23:00:00Z,26.1914,-97.0507,1018.69,11111222 
TABS,ioos:station:wmo:42044:1,2009-12-03T23:30:00Z,26.1914,-97.0507,1018.7,11111222 
TABS,ioos:station:wmo:42044:1,2009-12-04T00:00:00Z,26.1914,-97.0507,1019.14,11111222 
TABS,ioos:station:wmo:42044:1,2009-12-04T00:30:00Z,26.1914,-97.0507,1019.51,11111222 
TABS,ioos:station:wmo:42044:1,2009-12-04T01:00:00Z,26.1914,-97.0507,1019.62,11111222 
TABS,ioos:station:wmo:42044:1,2009-12-04T01:30:00Z,26.1914,-97.0507,1019.66,11111222 
TABS,ioos:station:wmo:42044:1,2009-12-04T02:00:00Z,26.1914,-97.0507,1019.87,11111222 
TABS,ioos:station:wmo:42044:1,2009-12-04T02:30:00Z,26.1914,-97.0507,1019.78,11111222 
TABS,ioos:station:wmo:42044:1,2009-12-04T03:00:00Z,26.1914,-97.0507,1019.91,11111222 
TABS,ioos:station:wmo:42044:1,2009-12-04T03:30:00Z,26.1914,-97.0507,1019.79,11111222 
TABS,ioos:station:wmo:42044:1,2009-12-04T04:00:00Z,26.1914,-97.0507,1019.55,11111222 
TABS,ioos:station:wmo:42044:1,2009-12-04T04:30:00Z,26.1914,-97.0507,1019.08,11111222 
TABS,ioos:station:wmo:42044:1,2009-12-04T05:00:00Z,26.1914,-97.0507,1018.98,11111222 
TABS,ioos:station:wmo:42044:1,2009-12-04T05:30:00Z,26.1914,-97.0507,1018.43,11111222 
TABS,ioos:station:wmo:42044:1,2009-12-04T06:00:00Z,26.1914,-97.0507,1018.18,11111222 
TABS,ioos:station:wmo:42044:1,2009-12-04T06:30:00Z,26.1914,-97.0507,1017.75,11111222 
TABS,ioos:station:wmo:42044:1,2009-12-04T07:00:00Z,26.1914,-97.0507,1018.0,11111222 
TABS,ioos:station:wmo:42044:1,2009-12-04T07:30:00Z,26.1914,-97.0507,1017.65,11111222 
TABS,ioos:station:wmo:42044:1,2009-12-04T08:00:00Z,26.1914,-97.0507,1017.67,11111222 
TABS,ioos:station:wmo:42044:1,2009-12-04T08:30:00Z,26.1914,-97.0507,1017.53,11111222 
TABS,ioos:station:wmo:42044:1,2009-12-04T09:00:00Z,26.1914,-97.0507,1017.39,11111222 
TABS,ioos:station:wmo:42044:1,2009-12-04T09:30:00Z,26.1914,-97.0507,1017.25,11111222 
TABS,ioos:station:wmo:42044:1,2009-12-04T10:00:00Z,26.1914,-97.0507,1017.14,11111222 
TABS,ioos:station:wmo:42044:1,2009-12-04T10:30:00Z,26.1914,-97.0507,1016.84,11111222 
TABS,ioos:station:wmo:42044:1,2009-12-04T11:00:00Z,26.1914,-97.0507,1017.12,11111222 
TABS,ioos:station:wmo:42044:1,2009-12-04T11:30:00Z,26.1914,-97.0507,1016.98,11111222 
TABS,ioos:station:wmo:42044:1,2009-12-04T12:00:00Z,26.1914,-97.0507,1017.42,11111222 
TABS,ioos:station:wmo:42044:1,2009-12-04T12:30:00Z,26.1914,-97.0507,1017.51,11111222 
TABS,ioos:station:wmo:42044:1,2009-12-04T13:00:00Z,26.1914,-97.0507,1017.67,11111222 
TABS,ioos:station:wmo:42044:1,2009-12-04T13:30:00Z,26.1914,-97.0507,1018.32,11111222 
TABS,ioos:station:wmo:42044:1,2009-12-04T14:00:00Z,26.1914,-97.0507,1018.9,11111222 
TABS,ioos:station:wmo:42044:1,2009-12-04T14:30:00Z,26.1914,-97.0507,1019.65,11111222 
TABS,ioos:station:wmo:42044:1,2009-12-04T15:00:00Z,26.1914,-97.0507,1020.01,11111222 
TABS,ioos:station:wmo:42044:1,2009-12-04T15:30:00Z,26.1914,-97.0507,1020.62,11111222 
TABS,ioos:station:wmo:42044:1,2009-12-04T16:00:00Z,26.1914,-97.0507,1021.32,11111222 
TABS,ioos:station:wmo:42044:1,2009-12-04T16:30:00Z,26.1914,-97.0507,1021.32,11111222 
TABS,ioos:station:wmo:42044:1,2009-12-04T17:00:00Z,26.1914,-97.0507,1021.24,11111222 
TABS,ioos:station:wmo:42044:1,2009-12-04T17:30:00Z,26.1914,-97.0507,1021.62,11111222 
TABS,ioos:station:wmo:42044:1,2009-12-04T18:00:00Z,26.1914,-97.0507,1021.77,11111222 
TABS,ioos:station:wmo:42044:1,2009-12-04T18:30:00Z,26.1914,-97.0507,1021.82,11111222 
TABS,ioos:station:wmo:42044:1,2009-12-04T19:00:00Z,26.1914,-97.0507,1021.71,11111222 
TABS,ioos:station:wmo:42044:1,2009-12-04T19:30:00Z,26.1914,-97.0507,1022.17,11111222 
TABS,ioos:station:wmo:42044:1,2009-12-04T20:00:00Z,26.1914,-97.0507,1023.64,11111222 
TABS,ioos:station:wmo:42044:1,2009-12-04T20:30:00Z,26.1914,-97.0507,1025.54,11111222 
TABS,ioos:station:wmo:42044:1,2009-12-04T21:00:00Z,26.1914,-97.0507,1025.0,11111222 
TABS,ioos:station:wmo:42044:1,2009-12-04T21:30:00Z,26.1914,-97.0507,1025.6,11111222 
TABS,ioos:station:wmo:42044:1,2009-12-04T22:00:00Z,26.1914,-97.0507,1026.71,11111222 
TABS,ioos:station:wmo:42044:1,2009-12-04T22:30:00Z,26.1914,-97.0507,1026.99,11111222 
TABS,ioos:station:wmo:42044:1,2009-12-04T23:00:00Z,26.1914,-97.0507,1027.76,11111222 
TABS,ioos:station:wmo:42044:1,2009-12-04T23:30:00Z,26.1914,-97.0507,1026.71,11111222 
TABS,ioos:station:wmo:42044:1,2009-12-05T00:00:00Z,26.1914,-97.0507,1026.05,11111222 
TABS,ioos:station:wmo:42044:1,2009-12-05T00:30:00Z,26.1914,-97.0507,1026.54,11111222 
TABS,ioos:station:wmo:42044:1,2009-12-05T01:00:00Z,26.1914,-97.0507,1026.84,11111222 
TABS,ioos:station:wmo:42044:1,2009-12-05T01:30:00Z,26.1914,-97.0507,1027.26,11111222 
TABS,ioos:station:wmo:42044:1,2009-12-05T02:00:00Z,26.1914,-97.0507,1027.99,11111222 
TABS,ioos:station:wmo:42044:1,2009-12-05T02:30:00Z,26.1914,-97.0507,1028.19,11111222 
TABS,ioos:station:wmo:42044:1,2009-12-05T03:00:00Z,26.1914,-97.0507,1028.29,11111222 
TABS,ioos:station:wmo:42044:1,2009-12-05T03:30:00Z,26.1914,-97.0507,1029.29,11111222 
TABS,ioos:station:wmo:42044:1,2009-12-05T04:00:00Z,26.1914,-97.0507,1029.19,11111222 
TABS,ioos:station:wmo:42044:1,2009-12-05T04:30:00Z,26.1914,-97.0507,1029.86,11111222 
TABS,ioos:station:wmo:42044:1,2009-12-05T05:00:00Z,26.1914,-97.0507,1029.58,11111222 
TABS,ioos:station:wmo:42044:1,2009-12-05T05:30:00Z,26.1914,-97.0507,1029.05,11111222 
TABS,ioos:station:wmo:42044:1,2009-12-05T06:00:00Z,26.1914,-97.0507,1028.45,11111222 
TABS,ioos:station:wmo:42044:1,2009-12-05T06:30:00Z,26.1914,-97.0507,1028.33,11111222 
TABS,ioos:station:wmo:42044:1,2009-12-05T07:00:00Z,26.1914,-97.0507,1027.95,11111222 
TABS,ioos:station:wmo:42044:1,2009-12-05T07:30:00Z,26.1914,-97.0507,1027.8,11111222 
TABS,ioos:station:wmo:42044:1,2009-12-05T08:00:00Z,26.1914,-97.0507,1026.85,11111222 
TABS,ioos:station:wmo:42044:1,2009-12-05T08:30:00Z,26.1914,-97.0507,1026.33,11111222 
TABS,ioos:station:wmo:42044:1,2009-12-05T09:00:00Z,26.1914,-97.0507,1026.89,11111222 
TABS,ioos:station:wmo:42044:1,2009-12-05T09:30:00Z,26.1914,-97.0507,1027.48,11111222 
TABS,ioos:station:wmo:42044:1,2009-12-05T10:00:00Z,26.1914,-97.0507,1027.16,11111222 
TABS,ioos:station:wmo:42044:1,2009-12-05T10:30:00Z,26.1914,-97.0507,1027.04,11111222 
TABS,ioos:station:wmo:42044:1,2009-12-05T11:00:00Z,26.1914,-97.0507,1026.24,11111222 
TABS,ioos:station:wmo:42044:1,2009-12-05T11:30:00Z,26.1914,-97.0507,1026.43,11111222 
TABS,ioos:station:wmo:42044:1,2009-12-05T12:00:00Z,26.1914,-97.0507,1024.79,11111222 
TABS,ioos:station:wmo:42044:1,2009-12-05T12:30:00Z,26.1914,-97.0507,1024.52,11111222 
TABS,ioos:station:wmo:42044:1,2009-12-05T13:00:00Z,26.1914,-97.0507,1022.42,11111222 
TABS,ioos:station:wmo:42044:1,2009-12-05T13:30:00Z,26.1914,-97.0507,1021.96,11111222 
TABS,ioos:station:wmo:42044:1,2009-12-05T14:00:00Z,26.1914,-97.0507,1026.97,11111222 
TABS,ioos:station:wmo:42044:1,2009-12-05T14:30:00Z,26.1914,-97.0507,1028.21,11111222 
TABS,ioos:station:wmo:42044:1,2009-12-05T15:00:00Z,26.1914,-97.0507,1029.23,11111222 
TABS,ioos:station:wmo:42044:1,2009-12-05T15:30:00Z,26.1914,-97.0507,1029.22,11111222 
TABS,ioos:station:wmo:42044:1,2009-12-05T16:00:00Z,26.1914,-97.0507,1028.82,11111222 
TABS,ioos:station:wmo:42044:1,2009-12-05T16:30:00Z,26.1914,-97.0507,1029.93,11111222 
TABS,ioos:station:wmo:42044:1,2009-12-05T17:00:00Z,26.1914,-97.0507,1028.05,11111222 
TABS,ioos:station:wmo:42044:1,2009-12-05T17:30:00Z,26.1914,-97.0507,1027.97,11111222 
TABS,ioos:station:wmo:42044:1,2009-12-05T18:00:00Z,26.1914,-97.0507,1028.82,11111222 
TABS,ioos:station:wmo:42044:1,2009-12-05T18:30:00Z,26.1914,-97.0507,1026.48,11111222 
TABS,ioos:station:wmo:42044:1,2009-12-05T19:00:00Z,26.1914,-97.0507,1026.56,11111222 
TABS,ioos:station:wmo:42044:1,2009-12-05T19:30:00Z,26.1914,-97.0507,1026.13,11111222 
TABS,ioos:station:wmo:42044:1,2009-12-05T20:00:00Z,26.1914,-97.0507,1026.03,11111222 
TABS,ioos:station:wmo:42044:1,2009-12-05T20:30:00Z,26.1914,-97.0507,1023.89,11111222 
TABS,ioos:station:wmo:42044:1,2009-12-05T21:00:00Z,26.1914,-97.0507,1023.91,11111222 
TABS,ioos:station:wmo:42044:1,2009-12-05T21:30:00Z,26.1914,-97.0507,1023.06,11111222 
TABS,ioos:station:wmo:42044:1,2009-12-05T22:00:00Z,26.1914,-97.0507,1022.33,11111222 
TABS,ioos:station:wmo:42044:1,2009-12-05T22:30:00Z,26.1914,-97.0507,1020.88,11111222 
TABS,ioos:station:wmo:42044:1,2009-12-05T23:00:00Z,26.1914,-97.0507,1020.03,11111222 
TABS,ioos:station:wmo:42044:1,2009-12-05T23:30:00Z,26.1914,-97.0507,1019.77,11111222 
TABS,ioos:station:wmo:42044:1,2009-12-06T00:00:00Z,26.1914,-97.0507,1019.63,11111222 
TABS,ioos:station:wmo:42044:1,2009-12-06T00:30:00Z,26.1914,-97.0507,1020.0,11111222 
TABS,ioos:station:wmo:42044:1,2009-12-06T01:00:00Z,26.1914,-97.0507,1020.49,11111222 
TABS,ioos:station:wmo:42044:1,2009-12-06T01:30:00Z,26.1914,-97.0507,1020.4,11111222 
TABS,ioos:station:wmo:42044:1,2009-12-06T02:00:00Z,26.1914,-97.0507,1021.17,11111222 
TABS,ioos:station:wmo:42044:1,2009-12-06T02:30:00Z,26.1914,-97.0507,1022.63,11111222 
TABS,ioos:station:wmo:42044:1,2009-12-06T03:00:00Z,26.1914,-97.0507,1023.32,11111222 
TABS,ioos:station:wmo:42044:1,2009-12-06T03:30:00Z,26.1914,-97.0507,1021.57,11111222 
TABS,ioos:station:wmo:42044:1,2009-12-06T04:00:00Z,26.1914,-97.0507,1021.99,11111222 
TABS,ioos:station:wmo:42044:1,2009-12-06T04:30:00Z,26.1914,-97.0507,1022.25,11111222 
TABS,ioos:station:wmo:42044:1,2009-12-06T05:00:00Z,26.1914,-97.0507,1020.7,11111222 
TABS,ioos:station:wmo:42044:1,2009-12-06T05:30:00Z,26.1914,-97.0507,1019.82,11111222 
TABS,ioos:station:wmo:42044:1,2009-12-06T06:00:00Z,26.1914,-97.0507,1019.42,11111222 
TABS,ioos:station:wmo:42044:1,2009-12-06T06:30:00Z,26.1914,-97.0507,1018.96,11111222 
TABS,ioos:station:wmo:42044:1,2009-12-06T07:00:00Z,26.1914,-97.0507,1018.31,11111222 
TABS,ioos:station:wmo:42044:1,2009-12-06T07:30:00Z,26.1914,-97.0507,1018.71,11111222 
TABS,ioos:station:wmo:42044:1,2009-12-06T08:00:00Z,26.1914,-97.0507,1017.89,11111222 
TABS,ioos:station:wmo:42044:1,2009-12-06T08:30:00Z,26.1914,-97.0507,1018.33,11111222 
TABS,ioos:station:wmo:42044:1,2009-12-06T09:00:00Z,26.1914,-97.0507,1016.51,11111222 
TABS,ioos:station:wmo:42044:1,2009-12-06T09:30:00Z,26.1914,-97.0507,1015.65,11111222 
TABS,ioos:station:wmo:42044:1,2009-12-06T10:00:00Z,26.1914,-97.0507,1016.2,11111222 
TABS,ioos:station:wmo:42044:1,2009-12-06T10:30:00Z,26.1914,-97.0507,1016.46,11111222 
TABS,ioos:station:wmo:42044:1,2009-12-06T11:00:00Z,26.1914,-97.0507,1015.03,11111222 
TABS,ioos:station:wmo:42044:1,2009-12-06T11:30:00Z,26.1914,-97.0507,1014.74,11111222 
TABS,ioos:station:wmo:42044:1,2009-12-06T12:00:00Z,26.1914,-97.0507,1014.42,11111222 
TABS,ioos:station:wmo:42044:1,2009-12-06T12:30:00Z,26.1914,-97.0507,1014.45,11111222 
TABS,ioos:station:wmo:42044:1,2009-12-06T13:00:00Z,26.1914,-97.0507,1014.85,11111222 
TABS,ioos:station:wmo:42044:1,2009-12-06T13:30:00Z,26.1914,-97.0507,1015.65,11111222 
TABS,ioos:station:wmo:42044:1,2009-12-06T14:00:00Z,26.1914,-97.0507,1016.77,11111222 
TABS,ioos:station:wmo:42044:1,2009-12-06T14:30:00Z,26.1914,-97.0507,1017.48,11111222 
TABS,ioos:station:wmo:42044:1,2009-12-06T15:00:00Z,26.1914,-97.0507,1016.07,11111222 
TABS,ioos:station:wmo:42044:1,2009-12-06T15:30:00Z,26.1914,-97.0507,1015.84,11111222 
TABS,ioos:station:wmo:42044:1,2009-12-06T16:00:00Z,26.1914,-97.0507,1016.0,11111222 
TABS,ioos:station:wmo:42044:1,2009-12-06T16:30:00Z,26.1914,-97.0507,1016.05,11111222 
TABS,ioos:station:wmo:42044:1,2009-12-06T17:00:00Z,26.1914,-97.0507,1015.12,11111222 
TABS,ioos:station:wmo:42044:1,2009-12-06T17:30:00Z,26.1914,-97.0507,1014.86,11111222 
TABS,ioos:station:wmo:42044:1,2009-12-06T18:00:00Z,26.1914,-97.0507,1014.44,11111222 
TABS,ioos:station:wmo:42044:1,2009-12-06T18:30:00Z,26.1914,-97.0507,1014.55,11111222 